Tracking 28096 objects as of 28-Sep-2023
HD Live streaming from Space Station
objects crossing your sky now

SHERPA-LTC2

Track SHERPA-LTC2 now!
10-day predictions


NORAD ID: 53754
Int'l Code: 2022-107BG
Perigee: 398.6 km
Apogee: 1,052.3 km
Inclination: 53.2 °
Period: 99.2 minutes
Semi major axis: 7096 km
RCS: Unknown
Launch date: September 5, 2022
Source: United States (US)
Launch site: AIR FORCE EASTERN TEST RANGE (AFETR)
Your satellite tracking list
Your tracking list is empty




NASA's NSSDC Master Catalog

Two Line Element Set (TLE):
1 53754U 22107BG  23270.68282834  .00004880  00000-0  29939-3 0  9996
2 53754  53.2405  54.1837 0460625   2.5978 357.7230 14.52248940 57274
Source of the keplerian elements: AFSPC